Regional Weather Roundup
Issued by NWS Upton, NY

Current Version | Previous Version | Text Only | Print | Product List | Glossary Off
Versions: 1 2 3 4 5 6 7 8 9 10 11 12 13 14 15 16 17 18 19 20 21 22 23 24 25 26 27 28 29 30
000 ASUS41 KOKX 261304 RWROKX REGIONAL WEATHER ROUNDUP NATIONAL WEATHER SERVICE NEW YORK NY 900 AM EDT FRI AUG 26 2016 NOTE: "FAIR" INDICATES FEW OR NO CLOUDS BELOW 12,000 FEET WITH NO SIGNIFICANT WEATHER AND/OR OBSTRUCTIONS TO VISIBILITY. NYZ071-072-176-178-NJZ106-104-261400- NEW YORK CITY METRO AREA CITY SKY/WX TMP DP RH WIND PRES REMARKS Central Park N/A 79 72 78 MISG N/A LaGuardia APRT PTSUNNY 81 72 74 W3 29.98S Kennedy INTL PTSUNNY 77 72 84 SW10 30.00F Newark/Liberty PTSUNNY 81 72 74 W9 29.99S Bronx Bot Gard N/A 79 70 73 NW6 30.01R Wall St Helipt MOSUNNY 79 73 83 W6 30.00S Teterboro MOSUNNY 80 71 74 SW8 29.98S $$ NYZ177-179-078>081-261400- LONG ISLAND NEW YORK CITY SKY/WX TMP DP RH WIND PRES REMARKS Farmingdale PTSUNNY 78 71 79 SW7 30.00S MacArthur/ISP CLOUDY 77 72 84 SW9 29.99S Shirley CLOUDY 78 73 84 SW10 30.00F Riverhead NOT AVBL Westhampton PTSUNNY 76 72 87 SW10G18 30.01F Southampton N/A 75 72 88 SW7 29.96F Bridgehampton N/A 77 72 83 S2 29.99S East Hampton PTSUNNY 75 72 88 SW10 29.99F Montauk N/A 77 73 87 SW10G21 30.00F $$ NYZ052-065-067-261400- HUDSON VALLEY CITY SKY/WX TMP DP RH WIND PRES REMARKS White Plains MOSUNNY 78 72 81 VRB3 29.99F Newburgh MOSUNNY 75 73 94 W5 30.00F Montgomery CLOUDY 79 73 82 SW7 29.98F Poughkeepsie MOSUNNY 78 72 81 SW10 29.96F Albany CLOUDY 76 72 87 SW5 29.97R $$ NJZ001-105-106-008-010-013-015-019>022-104-261400- NEW JERSEY CITY SKY/WX TMP DP RH WIND PRES REMARKS Newark/Liberty PTSUNNY 81 72 74 W9 29.99S Teterboro MOSUNNY 80 71 74 SW8 29.98S Caldwell SUNNY 80 73 79 CALM 29.99F Morristown PTSUNNY 79 73 83 W9 30.00S Somerville MOSUNNY 79 73 82 CALM 29.99S Linden FAIR 79 71 77 W7 30.01S Sussex MOSUNNY 77 75 93 SW6 30.00F Abdover N/A 77 73 87 VRB5 30.02F Trenton MOSUNNY 80 73 79 W7 30.01S Millville PTSUNNY 81 77 88 W9 30.03F Atlantic City MOSUNNY 82 73 74 W10 30.03S Wrightstown NOT AVBL Toms River CLOUDY 77 73 87 W10 30.02S Belmar CLOUDY 77 73 87 SW7 30.02S $$ PAZ047>061-062-071-261400- EASTERN PENNSYLVANIA CITY SKY/WX TMP DP RH WIND PRES REMARKS Philadelphia MOSUNNY 82 73 74 W7 30.02S Allentown SUNNY 80 73 79 SW7 30.03S Scranton CLOUDY 77 71 82 SW7 30.06R $$ CTZ002-004>006-009-010-012-RIZ004-006-007-MAZ004-011-015-261400- SOUTHERN NEW ENGLAND IN CT CITY SKY/WX TMP DP RH WIND PRES REMARKS Bradley INTL CLOUDY 76 70 82 S8 29.97S Hartford CLOUDY 80 72 76 S7 29.96S Danbury MOSUNNY 76 71 85 SW8 30.00S Wtrbury/Oxford PTSUNNY 73 68 83 SW6 30.02R FOG Bridgeport CLOUDY 78 71 79 SW10 29.98S Meriden CLOUDY 79 71 76 SW5 29.98S New Haven CLOUDY 76 70 82 SW6 29.99S Chester PTSUNNY 77 72 83 SW8 29.99F Groton PTSUNNY 78 72 81 SW10 29.98S Wilimantic CLOUDY 77 73 87 S6 29.98F IN RI CITY SKY/WX TMP DP RH WIND PRES REMARKS Providence CLOUDY 78 71 79 S7 29.99R Block Island MOSUNNY 76 73 91 SW17G23 30.01S Westerly PTSUNNY 79 70 74 SW13 30.00S IN MA CITY SKY/WX TMP DP RH WIND PRES REMARKS Boston CLOUDY 78 71 79 SW12 29.95S Worcester CLOUDY 72 69 90 SW9 29.99S Westfield CLOUDY 74 70 87 S7 29.96F Provincetown MOSUNNY 76 71 85 SW12 29.97F Nantucket MOSUNNY 74 70 87 SW12 30.01F $$ ANZ330-335-338-340-345-350-353-355-261400- COASTAL MARINE OBSERVATIONS STATION/POSITION TIME SKY/WX TEMP WIND PRES VSBY WAVE AIR SEA DIR/SP/G HT/PER (UTC) (F) (DEG/KT/KT) (MB) (MI) (FT/S) NY HARB ENTRANCE 1150 75 72 220/ 12/ 14 1015.7 3/ 5 20S FIRE ISLAND 1150 76 74 220/ 14/ 17 1015.7 4/ 5 GREAT SOUTH BAY 1200 76 78 230/ 12/ 14 N/A 23 SSW MONTAUK P 1150 76 74 220/ 16/ 17 1016.3 4/ 5 15 E BARNEGAT LI 1200 74 N/A 4/ 5 HUDSON CANYON 1150 79 78 1017.1 4/ 6 KINGS POINT 1200 76 76 1015.4 EXECUTION ROCKS 1200 76 210/ 8/ 10 N/A CENTRAL LI SOUND 1200 76 75 210/ 12/ 14 N/A 2/ 4 EASTERN LI SOUND 1200 76 70 210/ 10/ 12 N/A ROBBINS REEF 1206 76 260/ 7/ 9 1014.9 $$ >>>>>>>>>>>>>>>>>>>>>>>>>>>> KEY <<<<<<<<<<<<<<<<<<<<<<<<<<< > < > SKY/WX - Sky Condition/Present Weather < > TMP - Temperature in Fahrenheit < > DP - Dew Point in Fahrenheit < > RH - Relative Humidity in Percent < > WIND - Direction (from) and Speed in MPH < > PRES - Mean Sea Level Pressure (inches of Hg) < > WCI - Wind Chill Index < > VSB - VISIBILITY IN MILES < > HX - HEAT INDEX < > TC - TEMPERATURE IN CELSIUS < > VRB - VARIABLE WIND DIRECTION < > < >>>>>>>>>>>>>>>>>>>>>>>>>>>> KEY <<<<<<<<<<<<<<<<<<<<<<<<<<<

USA.gov is the U.S. government's official web portal to all federal, state and local government web resources and services.